Terug naar catalogus

STARLINK-5581

ActiefCommunicatieVLEO
NORAD 55373·PAYLOAD·🇺🇸 United States

Gelanceerd Jan 26, 2023 vanaf Cape Canaveral Space Force Station

Loading…

Volgende Passages (komende 24 uur)

TLE

VersSource: CelesTrak SupGP

Epoch: Sep 15, 2026, 02:59 UTC

1 55373C 23013AU  26258.12479167  .00027621  00000+0  10005-2 0  2585
2 55373  43.0040 332.0311 0001902 265.8804 355.1259 15.27560736    17

Volg STARLINK-5581 in realtime met AllMySat

Download on the App Store